Year,Month,Day,Hour,Minute,Value (Times are PST for temperature in C)
2018,11,17,00,00,4.40
2018,11,17,00,01,4.40
2018,11,17,00,02,4.40
2018,11,17,00,03,4.40
2018,11,17,00,04,4.40
2018,11,17,00,05,4.40
2018,11,17,00,06,4.40
2018,11,17,00,07,4.40
2018,11,17,00,08,4.30
2018,11,17,00,09,4.30
2018,11,17,00,10,4.30
2018,11,17,00,11,4.30
2018,11,17,00,12,4.30
2018,11,17,00,13,4.30
2018,11,17,00,14,4.30
2018,11,17,00,15,4.30
2018,11,17,00,16,4.30
2018,11,17,00,17,4.20
2018,11,17,00,18,4.20
2018,11,17,00,19,4.20
2018,11,17,00,20,4.20
2018,11,17,00,21,4.20
2018,11,17,00,22,4.10
2018,11,17,00,23,4.10
2018,11,17,00,24,4.10
2018,11,17,00,25,4.10
2018,11,17,00,26,4.20
2018,11,17,00,27,4.20
2018,11,17,00,28,4.20
2018,11,17,00,29,4.20
2018,11,17,00,30,4.30
2018,11,17,00,31,4.30
2018,11,17,00,32,4.30
2018,11,17,00,33,4.30
2018,11,17,00,34,4.30
2018,11,17,00,35,4.30
2018,11,17,00,36,4.30
2018,11,17,00,37,4.30
2018,11,17,00,38,4.20
2018,11,17,00,39,4.20
2018,11,17,00,40,4.20
2018,11,17,00,41,4.20
2018,11,17,00,42,4.20
2018,11,17,00,43,4.10
2018,11,17,00,44,4.10
2018,11,17,00,45,4.10
2018,11,17,00,46,4.10
2018,11,17,00,47,4.20
2018,11,17,00,48,4.20
2018,11,17,00,49,4.20
2018,11,17,00,50,4.20
2018,11,17,00,51,4.10
2018,11,17,00,52,4.10
2018,11,17,00,53,4.10
2018,11,17,00,54,4.10
2018,11,17,00,55,4.10
2018,11,17,00,56,4.10
2018,11,17,00,57,4.10
2018,11,17,00,58,4.10
2018,11,17,00,59,4.10
2018,11,17,01,00,4.10
2018,11,17,01,01,4.10
2018,11,17,01,02,4.10
2018,11,17,01,03,4.10
2018,11,17,01,04,4.00
2018,11,17,01,05,4.00
2018,11,17,01,06,4.00
2018,11,17,01,07,3.90
2018,11,17,01,08,3.90
2018,11,17,01,09,3.90
2018,11,17,01,10,3.90
2018,11,17,01,11,3.90
2018,11,17,01,12,3.90
2018,11,17,01,13,3.90
2018,11,17,01,14,3.90
2018,11,17,01,15,3.90
2018,11,17,01,16,3.90
2018,11,17,01,17,3.90
2018,11,17,01,18,4.00
2018,11,17,01,19,4.00
2018,11,17,01,20,4.00
2018,11,17,01,21,4.00
2018,11,17,01,22,4.00
2018,11,17,01,23,3.90
2018,11,17,01,24,3.90
2018,11,17,01,25,4.00
2018,11,17,01,26,4.00
2018,11,17,01,27,3.90
2018,11,17,01,28,3.90
2018,11,17,01,29,3.90
2018,11,17,01,30,3.90
2018,11,17,01,31,3.90
2018,11,17,01,32,3.80
2018,11,17,01,33,3.80
2018,11,17,01,34,3.80
2018,11,17,01,35,3.80
2018,11,17,01,36,3.80
2018,11,17,01,37,3.80
2018,11,17,01,38,3.80
2018,11,17,01,39,3.70
2018,11,17,01,40,3.80
2018,11,17,01,41,3.80
2018,11,17,01,42,3.90
2018,11,17,01,43,4.00
2018,11,17,01,44,4.00
2018,11,17,01,45,4.00
2018,11,17,01,46,4.10
2018,11,17,01,47,4.10
2018,11,17,01,48,4.00
2018,11,17,01,49,4.00
2018,11,17,01,50,4.00
2018,11,17,01,51,3.90
2018,11,17,01,52,3.90
2018,11,17,01,53,3.90
2018,11,17,01,54,3.90
2018,11,17,01,55,4.00
2018,11,17,01,56,4.00
2018,11,17,01,57,4.00
2018,11,17,01,58,4.00
2018,11,17,01,59,4.00
2018,11,17,02,00,4.10
2018,11,17,02,01,4.10
2018,11,17,02,02,4.00
2018,11,17,02,03,4.00
2018,11,17,02,04,4.00
2018,11,17,02,05,4.00
2018,11,17,02,06,3.90
2018,11,17,02,07,3.90
2018,11,17,02,08,3.90
2018,11,17,02,09,3.90
2018,11,17,02,10,3.90
2018,11,17,02,11,4.00
2018,11,17,02,12,4.00
2018,11,17,02,13,4.00
2018,11,17,02,14,4.00
2018,11,17,02,15,4.10
2018,11,17,02,16,4.10
2018,11,17,02,17,4.10
2018,11,17,02,18,4.10
2018,11,17,02,19,4.10
2018,11,17,02,20,4.00
2018,11,17,02,21,4.00
2018,11,17,02,22,3.90
2018,11,17,02,23,4.00
2018,11,17,02,24,4.00
2018,11,17,02,25,4.00
2018,11,17,02,26,4.00
2018,11,17,02,27,4.00
2018,11,17,02,28,4.00
2018,11,17,02,29,3.90
2018,11,17,02,30,3.90
2018,11,17,02,31,3.80
2018,11,17,02,32,3.80
2018,11,17,02,33,3.80
2018,11,17,02,34,3.80
2018,11,17,02,35,3.80
2018,11,17,02,36,3.90
2018,11,17,02,37,3.80
2018,11,17,02,38,3.80
2018,11,17,02,39,3.80
2018,11,17,02,40,3.70
2018,11,17,02,41,3.70
2018,11,17,02,42,3.70
2018,11,17,02,43,3.70
2018,11,17,02,44,3.70
2018,11,17,02,45,3.70
2018,11,17,02,46,3.70
2018,11,17,02,47,3.70
2018,11,17,02,48,3.70
2018,11,17,02,49,3.70
2018,11,17,02,50,3.70
2018,11,17,02,51,3.70
2018,11,17,02,52,3.70
2018,11,17,02,53,3.70
2018,11,17,02,54,3.70
2018,11,17,02,55,3.70
2018,11,17,02,56,3.70
2018,11,17,02,57,3.70
2018,11,17,02,58,3.70
2018,11,17,02,59,3.60
2018,11,17,03,00,3.60
2018,11,17,03,01,3.60
2018,11,17,03,02,3.60
2018,11,17,03,03,3.60
2018,11,17,03,04,3.60
2018,11,17,03,05,3.60
2018,11,17,03,06,3.60
2018,11,17,03,07,3.60
2018,11,17,03,08,3.70
2018,11,17,03,09,3.60
2018,11,17,03,10,3.60
2018,11,17,03,11,3.60
2018,11,17,03,12,3.60
2018,11,17,03,13,3.60
2018,11,17,03,14,3.60
2018,11,17,03,15,3.60
2018,11,17,03,16,3.60
2018,11,17,03,17,3.60
2018,11,17,03,18,3.60
2018,11,17,03,19,3.60
2018,11,17,03,20,3.60
2018,11,17,03,21,3.50
2018,11,17,03,22,3.50
2018,11,17,03,23,3.50
2018,11,17,03,24,3.40
2018,11,17,03,25,3.40
2018,11,17,03,26,3.30
2018,11,17,03,27,3.30
2018,11,17,03,28,3.30
2018,11,17,03,29,3.30
2018,11,17,03,30,3.30
2018,11,17,03,31,3.40
2018,11,17,03,32,3.40
2018,11,17,03,33,3.40
2018,11,17,03,34,3.40
2018,11,17,03,35,3.40
2018,11,17,03,36,3.40
2018,11,17,03,37,3.40
2018,11,17,03,38,3.40
2018,11,17,03,39,3.40
2018,11,17,03,40,3.40
2018,11,17,03,41,3.40
2018,11,17,03,42,3.40
2018,11,17,03,43,3.40
2018,11,17,03,44,3.40
2018,11,17,03,45,3.30
2018,11,17,03,46,3.30
2018,11,17,03,47,3.30
2018,11,17,03,48,3.30
2018,11,17,03,49,3.30
2018,11,17,03,50,3.30
2018,11,17,03,51,3.30
2018,11,17,03,52,3.20
2018,11,17,03,53,3.20
2018,11,17,03,54,3.20
2018,11,17,03,55,3.20
2018,11,17,03,56,3.20
2018,11,17,03,57,3.20
2018,11,17,03,58,3.20
2018,11,17,03,59,3.10
2018,11,17,04,00,3.10
2018,11,17,04,01,3.10
2018,11,17,04,02,3.10
2018,11,17,04,03,3.10
2018,11,17,04,04,3.10
2018,11,17,04,05,3.10
2018,11,17,04,06,3.10
2018,11,17,04,07,3.10
2018,11,17,04,08,3.10
2018,11,17,04,09,3.10
2018,11,17,04,10,3.10
2018,11,17,04,11,3.10
2018,11,17,04,12,3.10
2018,11,17,04,13,3.10
2018,11,17,04,14,3.10
2018,11,17,04,15,3.00
2018,11,17,04,16,3.00
2018,11,17,04,17,3.00
2018,11,17,04,18,3.00
2018,11,17,04,19,3.00
2018,11,17,04,20,3.00
2018,11,17,04,21,3.00
2018,11,17,04,22,3.00
2018,11,17,04,23,3.10
2018,11,17,04,24,3.10
2018,11,17,04,25,3.10
2018,11,17,04,26,3.10
2018,11,17,04,27,3.10
2018,11,17,04,28,3.10
2018,11,17,04,29,3.10
2018,11,17,04,30,3.10
2018,11,17,04,31,3.10
2018,11,17,04,32,3.00
2018,11,17,04,33,3.00
2018,11,17,04,34,3.00
2018,11,17,04,35,3.10
2018,11,17,04,36,3.00
2018,11,17,04,37,3.00
2018,11,17,04,38,3.00
2018,11,17,04,39,2.90
2018,11,17,04,40,2.90
2018,11,17,04,41,2.90
2018,11,17,04,42,2.90
2018,11,17,04,43,2.90
2018,11,17,04,44,2.90
2018,11,17,04,45,2.90
2018,11,17,04,46,2.90
2018,11,17,04,47,2.80
2018,11,17,04,48,2.80
2018,11,17,04,49,2.80
2018,11,17,04,50,2.70
2018,11,17,04,51,2.70
2018,11,17,04,52,2.70
2018,11,17,04,53,2.70
2018,11,17,04,54,2.70
2018,11,17,04,55,2.70
2018,11,17,04,56,2.70
2018,11,17,04,57,2.70
2018,11,17,04,58,2.70
2018,11,17,04,59,2.80
2018,11,17,05,00,2.80
2018,11,17,05,01,2.80
2018,11,17,05,02,2.80
2018,11,17,05,03,2.70
2018,11,17,05,04,2.70
2018,11,17,05,05,2.70
2018,11,17,05,06,2.70
2018,11,17,05,07,2.70
2018,11,17,05,08,2.70
2018,11,17,05,09,2.70
2018,11,17,05,10,2.70
2018,11,17,05,11,2.70
2018,11,17,05,12,2.70
2018,11,17,05,13,2.60
2018,11,17,05,14,2.60
2018,11,17,05,15,2.60
2018,11,17,05,16,2.60
2018,11,17,05,17,2.60
2018,11,17,05,18,2.60
2018,11,17,05,19,2.60
2018,11,17,05,20,2.60
2018,11,17,05,21,2.60
2018,11,17,05,22,2.50
2018,11,17,05,23,2.50
2018,11,17,05,24,2.50
2018,11,17,05,25,2.60
2018,11,17,05,26,2.60
2018,11,17,05,27,2.70
2018,11,17,05,28,2.70
2018,11,17,05,29,2.70
2018,11,17,05,30,2.70
2018,11,17,05,31,2.70
2018,11,17,05,32,2.70
2018,11,17,05,33,2.70
2018,11,17,05,34,2.70
2018,11,17,05,35,2.70
2018,11,17,05,36,2.70
2018,11,17,05,37,2.70
2018,11,17,05,38,2.80
2018,11,17,05,39,2.80
2018,11,17,05,40,2.80
2018,11,17,05,41,2.70
2018,11,17,05,42,2.70
2018,11,17,05,43,2.70
2018,11,17,05,44,2.70
2018,11,17,05,45,2.70
2018,11,17,05,46,2.70
2018,11,17,05,47,2.70
2018,11,17,05,48,2.70
2018,11,17,05,49,2.70
2018,11,17,05,50,2.60
2018,11,17,05,51,2.60
2018,11,17,05,52,2.60
2018,11,17,05,53,2.60
2018,11,17,05,54,2.60
2018,11,17,05,55,2.60
2018,11,17,05,56,2.70
2018,11,17,05,57,2.60
2018,11,17,05,58,2.60
2018,11,17,05,59,2.60
2018,11,17,06,00,2.70
2018,11,17,06,01,2.60
2018,11,17,06,02,2.60
2018,11,17,06,03,2.60
2018,11,17,06,04,2.60
2018,11,17,06,05,2.50
2018,11,17,06,06,2.50
2018,11,17,06,07,2.50
2018,11,17,06,08,2.50
2018,11,17,06,09,2.50
2018,11,17,06,10,2.50
2018,11,17,06,11,2.50
2018,11,17,06,12,2.50
2018,11,17,06,13,2.40
2018,11,17,06,14,2.40
2018,11,17,06,15,2.40
2018,11,17,06,16,2.40
2018,11,17,06,17,2.40
2018,11,17,06,18,2.40
2018,11,17,06,19,2.40
2018,11,17,06,20,2.40
2018,11,17,06,21,2.40
2018,11,17,06,22,2.30
2018,11,17,06,23,2.30
2018,11,17,06,24,2.30
2018,11,17,06,25,2.30
2018,11,17,06,26,2.30
2018,11,17,06,27,2.30
2018,11,17,06,28,2.30
2018,11,17,06,29,2.30
2018,11,17,06,30,2.30
2018,11,17,06,31,2.30
2018,11,17,06,32,2.30
2018,11,17,06,33,2.30
2018,11,17,06,34,2.30
2018,11,17,06,35,2.30
2018,11,17,06,36,2.30
2018,11,17,06,37,2.30
2018,11,17,06,38,2.40
2018,11,17,06,39,2.40
2018,11,17,06,40,2.50
2018,11,17,06,41,2.50
2018,11,17,06,42,2.50
2018,11,17,06,43,2.50
2018,11,17,06,44,2.50
2018,11,17,06,45,2.40
2018,11,17,06,46,2.40
2018,11,17,06,47,2.40
2018,11,17,06,48,2.40
2018,11,17,06,49,2.40
2018,11,17,06,50,2.40
2018,11,17,06,51,2.30
2018,11,17,06,52,2.30
2018,11,17,06,53,2.30
2018,11,17,06,54,2.30
2018,11,17,06,55,2.20
2018,11,17,06,56,2.20
2018,11,17,06,57,2.20
2018,11,17,06,58,2.30
2018,11,17,06,59,2.30
2018,11,17,07,00,2.30
2018,11,17,07,01,2.30
2018,11,17,07,02,2.30
2018,11,17,07,03,2.30
2018,11,17,07,04,2.30
2018,11,17,07,05,2.30
2018,11,17,07,06,2.30
2018,11,17,07,07,2.30
2018,11,17,07,08,2.30
2018,11,17,07,09,2.20
2018,11,17,07,10,2.20
2018,11,17,07,11,2.20
2018,11,17,07,12,2.10
2018,11,17,07,13,2.10
2018,11,17,07,14,2.10
2018,11,17,07,15,2.10
2018,11,17,07,16,2.10
2018,11,17,07,17,2.20
2018,11,17,07,18,2.20
2018,11,17,07,19,2.10
2018,11,17,07,20,2.10
2018,11,17,07,21,2.10
2018,11,17,07,22,2.10
2018,11,17,07,23,2.10
2018,11,17,07,24,2.10
2018,11,17,07,25,2.10
2018,11,17,07,26,2.20
2018,11,17,07,27,2.20
2018,11,17,07,28,2.30
2018,11,17,07,29,2.30
2018,11,17,07,30,2.30
2018,11,17,07,31,2.40
2018,11,17,07,32,2.40
2018,11,17,07,33,2.50
2018,11,17,07,34,2.50
2018,11,17,07,35,2.60
2018,11,17,07,36,2.60
2018,11,17,07,37,2.60
2018,11,17,07,38,2.60
2018,11,17,07,39,2.50
2018,11,17,07,40,2.50
2018,11,17,07,41,2.50
2018,11,17,07,42,2.60
2018,11,17,07,43,2.60
2018,11,17,07,44,2.60
2018,11,17,07,45,2.70
2018,11,17,07,46,2.70
2018,11,17,07,47,2.70
2018,11,17,07,48,2.60
2018,11,17,07,49,2.60
2018,11,17,07,50,2.60
2018,11,17,07,51,2.60
2018,11,17,07,52,2.60
2018,11,17,07,53,2.60
2018,11,17,07,54,2.50
2018,11,17,07,55,2.50
2018,11,17,07,56,2.40
2018,11,17,07,57,2.40
2018,11,17,07,58,2.40
2018,11,17,07,59,2.40
2018,11,17,08,00,2.40
2018,11,17,08,01,2.30
2018,11,17,08,02,2.30
2018,11,17,08,03,2.30
2018,11,17,08,04,2.30
2018,11,17,08,05,2.30
2018,11,17,08,06,2.30
2018,11,17,08,07,2.30
2018,11,17,08,08,2.30
2018,11,17,08,09,2.30
2018,11,17,08,10,2.20
2018,11,17,08,11,2.20
2018,11,17,08,12,2.20
2018,11,17,08,13,2.20
2018,11,17,08,14,2.20
2018,11,17,08,15,2.10
2018,11,17,08,16,2.10
2018,11,17,08,17,2.10
2018,11,17,08,18,2.10
2018,11,17,08,19,2.10
2018,11,17,08,20,2.10
2018,11,17,08,21,2.10
2018,11,17,08,22,2.10
2018,11,17,08,23,2.10
2018,11,17,08,24,2.10
2018,11,17,08,25,2.10
2018,11,17,08,26,2.10
2018,11,17,08,27,2.10
2018,11,17,08,28,2.00
2018,11,17,08,29,2.10
2018,11,17,08,30,2.10
2018,11,17,08,31,2.10
2018,11,17,08,32,2.10
2018,11,17,08,33,2.20
2018,11,17,08,34,2.20
2018,11,17,08,35,2.30
2018,11,17,08,36,2.30
2018,11,17,08,37,2.30
2018,11,17,08,38,2.40
2018,11,17,08,39,2.40
2018,11,17,08,40,2.50
2018,11,17,08,41,2.50
2018,11,17,08,42,2.60
2018,11,17,08,43,2.60
2018,11,17,08,44,2.70
2018,11,17,08,45,2.70
2018,11,17,08,46,2.70
2018,11,17,08,47,2.80
2018,11,17,08,48,2.80
2018,11,17,08,49,2.90
2018,11,17,08,50,2.90
2018,11,17,08,51,3.00
2018,11,17,08,52,3.10
2018,11,17,08,53,3.10
2018,11,17,08,54,3.20
2018,11,17,08,55,3.20
2018,11,17,08,56,3.20
2018,11,17,08,57,3.20
2018,11,17,08,58,3.20
2018,11,17,08,59,3.20
2018,11,17,09,00,3.30
2018,11,17,09,01,3.30
2018,11,17,09,02,3.30
2018,11,17,09,03,3.30
2018,11,17,09,04,3.30
2018,11,17,09,05,3.40
2018,11,17,09,06,3.50
2018,11,17,09,07,3.50
2018,11,17,09,08,3.60
2018,11,17,09,09,3.70
2018,11,17,09,10,3.80
2018,11,17,09,11,3.80
2018,11,17,09,12,3.90
2018,11,17,09,13,3.90
2018,11,17,09,14,3.90
2018,11,17,09,15,3.90
2018,11,17,09,16,3.90
2018,11,17,09,17,3.80
2018,11,17,09,18,3.80
2018,11,17,09,19,3.80
2018,11,17,09,20,3.80
2018,11,17,09,21,3.90
2018,11,17,09,22,3.90
2018,11,17,09,23,4.00
2018,11,17,09,24,4.10
2018,11,17,09,25,4.10
2018,11,17,09,26,4.20
2018,11,17,09,27,4.20
2018,11,17,09,28,4.20
2018,11,17,09,29,4.30
2018,11,17,09,30,4.30
2018,11,17,09,31,4.30
2018,11,17,09,32,4.40
2018,11,17,09,33,4.40
2018,11,17,09,34,4.50
2018,11,17,09,35,4.60
2018,11,17,09,36,4.70
2018,11,17,09,37,4.80
2018,11,17,09,38,4.80
2018,11,17,09,39,4.80
2018,11,17,09,40,4.80
2018,11,17,09,41,4.80
2018,11,17,09,42,4.80
2018,11,17,09,43,4.80
2018,11,17,09,44,4.80
2018,11,17,09,45,4.90
2018,11,17,09,46,5.00
2018,11,17,09,47,5.00
2018,11,17,09,48,5.10
2018,11,17,09,49,5.20
2018,11,17,09,50,5.20
2018,11,17,09,51,5.20
2018,11,17,09,52,5.30
2018,11,17,09,53,5.30
2018,11,17,09,54,5.30
2018,11,17,09,55,5.40
2018,11,17,09,56,5.40
2018,11,17,09,57,5.40
2018,11,17,09,58,5.40
2018,11,17,09,59,5.40
2018,11,17,10,00,5.50
2018,11,17,10,01,5.60
2018,11,17,10,02,5.60
2018,11,17,10,03,5.60
2018,11,17,10,04,5.60
2018,11,17,10,05,5.60
2018,11,17,10,06,5.60
2018,11,17,10,07,5.70
2018,11,17,10,08,5.70
2018,11,17,10,09,5.80
2018,11,17,10,10,5.80
2018,11,17,10,11,5.90
2018,11,17,10,12,6.00
2018,11,17,10,13,6.00
2018,11,17,10,14,6.10
2018,11,17,10,15,6.10
2018,11,17,10,16,6.10
2018,11,17,10,17,6.10
2018,11,17,10,18,6.10
2018,11,17,10,19,6.20
2018,11,17,10,20,6.20
2018,11,17,10,21,6.30
2018,11,17,10,22,6.30
2018,11,17,10,23,6.40
2018,11,17,10,24,6.40
2018,11,17,10,25,6.40
2018,11,17,10,26,6.40
2018,11,17,10,27,6.50
2018,11,17,10,28,6.60
2018,11,17,10,29,6.60
2018,11,17,10,30,6.70
2018,11,17,10,31,6.80
2018,11,17,10,32,6.90
2018,11,17,10,33,7.00
2018,11,17,10,34,7.10
2018,11,17,10,35,7.20
2018,11,17,10,36,7.30
2018,11,17,10,37,7.30
2018,11,17,10,38,7.40
2018,11,17,10,39,7.40
2018,11,17,10,40,7.40
2018,11,17,10,41,7.50
2018,11,17,10,42,7.60
2018,11,17,10,43,7.60
2018,11,17,10,44,7.70
2018,11,17,10,45,7.80
2018,11,17,10,46,7.80
2018,11,17,10,47,7.80
2018,11,17,10,48,7.80
2018,11,17,10,49,7.80
2018,11,17,10,50,7.80
2018,11,17,10,51,7.80
2018,11,17,10,52,7.90
2018,11,17,10,53,7.90
2018,11,17,10,54,7.90
2018,11,17,10,55,7.90
2018,11,17,10,56,7.90
2018,11,17,10,57,8.00
2018,11,17,10,58,7.90
2018,11,17,10,59,7.80
2018,11,17,11,00,7.70
2018,11,17,11,01,7.70
2018,11,17,11,02,7.70
2018,11,17,11,03,7.70
2018,11,17,11,04,7.80
2018,11,17,11,05,7.80
2018,11,17,11,06,7.70
2018,11,17,11,07,7.70
2018,11,17,11,08,7.70
2018,11,17,11,09,7.70
2018,11,17,11,10,7.80
2018,11,17,11,11,7.80
2018,11,17,11,12,7.80
2018,11,17,11,13,7.90
2018,11,17,11,14,7.90
2018,11,17,11,15,7.90
2018,11,17,11,16,7.90
2018,11,17,11,17,8.00
2018,11,17,11,18,8.10
2018,11,17,11,19,8.20
2018,11,17,11,20,8.20
2018,11,17,11,21,8.30
2018,11,17,11,22,8.40
2018,11,17,11,23,8.40
2018,11,17,11,24,8.50
2018,11,17,11,25,8.60
2018,11,17,11,26,8.70
2018,11,17,11,27,8.70
2018,11,17,11,28,8.80
2018,11,17,11,29,8.80
2018,11,17,11,30,8.80
2018,11,17,11,31,8.80
2018,11,17,11,32,8.80
2018,11,17,11,33,8.90
2018,11,17,11,34,9.00
2018,11,17,11,35,9.00
2018,11,17,11,36,9.10
2018,11,17,11,37,9.10
2018,11,17,11,38,9.20
2018,11,17,11,39,9.30
2018,11,17,11,40,9.30
2018,11,17,11,41,9.30
2018,11,17,11,42,9.30
2018,11,17,11,43,9.30
2018,11,17,11,44,9.30
2018,11,17,11,45,9.30
2018,11,17,11,46,9.30
2018,11,17,11,47,9.40
2018,11,17,11,48,9.40
2018,11,17,11,49,9.50
2018,11,17,11,50,9.60
2018,11,17,11,51,9.60
2018,11,17,11,52,9.70
2018,11,17,11,53,9.80
2018,11,17,11,54,9.70
2018,11,17,11,55,9.70
2018,11,17,11,56,9.60
2018,11,17,11,57,9.50
2018,11,17,11,58,9.40
2018,11,17,11,59,9.30
2018,11,17,12,00,9.30
2018,11,17,12,01,9.20
2018,11,17,12,02,9.20
2018,11,17,12,03,9.20
2018,11,17,12,04,9.20
2018,11,17,12,05,9.30
2018,11,17,12,06,9.30
2018,11,17,12,07,9.40
2018,11,17,12,08,9.50
2018,11,17,12,09,9.50
2018,11,17,12,10,9.60
2018,11,17,12,11,9.70
2018,11,17,12,12,9.70
2018,11,17,12,13,9.70
2018,11,17,12,14,9.70
2018,11,17,12,15,9.70
2018,11,17,12,16,9.70
2018,11,17,12,17,9.70
2018,11,17,12,18,9.70
2018,11,17,12,19,9.70
2018,11,17,12,20,9.70
2018,11,17,12,21,9.80
2018,11,17,12,22,9.80
2018,11,17,12,23,9.70
2018,11,17,12,24,9.70
2018,11,17,12,25,9.70
2018,11,17,12,26,9.70
2018,11,17,12,27,9.80
2018,11,17,12,28,9.80
2018,11,17,12,29,9.80
2018,11,17,12,30,9.80
2018,11,17,12,31,9.80
2018,11,17,12,32,9.80
2018,11,17,12,33,9.80
2018,11,17,12,34,9.80
2018,11,17,12,35,9.80
2018,11,17,12,36,9.80
2018,11,17,12,37,9.80
2018,11,17,12,38,9.80
2018,11,17,12,39,9.70
2018,11,17,12,40,9.70
2018,11,17,12,41,9.80
2018,11,17,12,42,9.80
2018,11,17,12,43,9.80
2018,11,17,12,44,9.80
2018,11,17,12,45,9.90
2018,11,17,12,46,9.90
2018,11,17,12,47,9.80
2018,11,17,12,48,9.90
2018,11,17,12,49,9.90
2018,11,17,12,50,9.90
2018,11,17,12,51,10.00
2018,11,17,12,52,10.00
2018,11,17,12,53,10.10
2018,11,17,12,54,10.10
2018,11,17,12,55,10.10
2018,11,17,12,56,10.10
2018,11,17,12,57,10.20
2018,11,17,12,58,10.20
2018,11,17,12,59,10.20
2018,11,17,13,00,10.20
2018,11,17,13,01,10.20
2018,11,17,13,02,10.30
2018,11,17,13,03,10.30
2018,11,17,13,04,10.20
2018,11,17,13,05,10.20
2018,11,17,13,06,10.10
2018,11,17,13,07,10.10
2018,11,17,13,08,10.10
2018,11,17,13,09,10.10
2018,11,17,13,10,10.10
2018,11,17,13,11,10.10
2018,11,17,13,12,10.20
2018,11,17,13,13,10.20
2018,11,17,13,14,10.20
2018,11,17,13,15,10.10
2018,11,17,13,16,10.10
2018,11,17,13,17,10.10
2018,11,17,13,18,10.10
2018,11,17,13,19,10.10
2018,11,17,13,20,10.20
2018,11,17,13,21,10.20
2018,11,17,13,22,10.30
2018,11,17,13,23,10.30
2018,11,17,13,24,10.30
2018,11,17,13,25,10.40
2018,11,17,13,26,10.40
2018,11,17,13,27,10.40
2018,11,17,13,28,10.30
2018,11,17,13,29,10.30
2018,11,17,13,30,10.30
2018,11,17,13,31,10.30
2018,11,17,13,32,10.30
2018,11,17,13,33,10.30
2018,11,17,13,34,10.30
2018,11,17,13,35,10.30
2018,11,17,13,36,10.30
2018,11,17,13,37,10.30
2018,11,17,13,38,10.40
2018,11,17,13,39,10.40
2018,11,17,13,40,10.40
2018,11,17,13,41,10.40
2018,11,17,13,42,10.40
2018,11,17,13,43,10.40
2018,11,17,13,44,10.40
2018,11,17,13,45,10.50
2018,11,17,13,46,10.50
2018,11,17,13,47,10.50
2018,11,17,13,48,10.60
2018,11,17,13,49,10.60
2018,11,17,13,50,10.60
2018,11,17,13,51,10.60
2018,11,17,13,52,10.60
2018,11,17,13,53,10.60
2018,11,17,13,54,10.60
2018,11,17,13,55,10.60
2018,11,17,13,56,10.60
2018,11,17,13,57,10.60
2018,11,17,13,58,10.60
2018,11,17,13,59,10.70
2018,11,17,14,00,10.70
2018,11,17,14,01,10.70
2018,11,17,14,02,10.70
2018,11,17,14,03,10.60
2018,11,17,14,04,10.60
2018,11,17,14,05,10.60
2018,11,17,14,06,10.60
2018,11,17,14,07,10.70
2018,11,17,14,08,10.70
2018,11,17,14,09,10.70
2018,11,17,14,10,10.70
2018,11,17,14,11,10.70
2018,11,17,14,12,10.70
2018,11,17,14,13,10.70
2018,11,17,14,14,10.70
2018,11,17,14,15,10.70
2018,11,17,14,16,10.70
2018,11,17,14,17,10.80
2018,11,17,14,18,10.80
2018,11,17,14,19,10.80
2018,11,17,14,20,10.80
2018,11,17,14,21,10.80
2018,11,17,14,22,10.80
2018,11,17,14,23,10.80
2018,11,17,14,24,10.70
2018,11,17,14,25,10.70
2018,11,17,14,26,10.70
2018,11,17,14,27,10.80
2018,11,17,14,28,10.80
2018,11,17,14,29,10.80
2018,11,17,14,30,10.80
2018,11,17,14,31,10.90
2018,11,17,14,32,10.90
2018,11,17,14,33,10.90
2018,11,17,14,34,10.90
2018,11,17,14,35,11.00
2018,11,17,14,36,11.00
2018,11,17,14,37,11.00
2018,11,17,14,38,10.90
2018,11,17,14,39,10.90
2018,11,17,14,40,10.90
2018,11,17,14,41,10.80
2018,11,17,14,42,10.90
2018,11,17,14,43,10.90
2018,11,17,14,44,11.00
2018,11,17,14,45,10.90
2018,11,17,14,46,10.90
2018,11,17,14,47,10.90
2018,11,17,14,48,10.90
2018,11,17,14,49,10.90
2018,11,17,14,50,10.80
2018,11,17,14,51,10.80
2018,11,17,14,52,10.80
2018,11,17,14,53,10.80
2018,11,17,14,54,10.70
2018,11,17,14,55,10.70
2018,11,17,14,56,10.70
2018,11,17,14,57,10.60
2018,11,17,14,58,10.60
2018,11,17,14,59,10.50
2018,11,17,15,00,10.40
2018,11,17,15,01,10.40
2018,11,17,15,02,10.30
2018,11,17,15,03,10.20
2018,11,17,15,04,10.20
2018,11,17,15,05,10.20
2018,11,17,15,06,10.10
2018,11,17,15,07,10.10
2018,11,17,15,08,10.00
2018,11,17,15,09,9.90
2018,11,17,15,10,9.80
2018,11,17,15,11,9.70
2018,11,17,15,12,9.50
2018,11,17,15,13,9.40
2018,11,17,15,14,9.30
2018,11,17,15,15,9.30
2018,11,17,15,16,9.30
2018,11,17,15,17,9.20
2018,11,17,15,18,9.20
2018,11,17,15,19,9.10
2018,11,17,15,20,9.00
2018,11,17,15,21,8.90
2018,11,17,15,22,8.80
2018,11,17,15,23,8.70
2018,11,17,15,24,8.70
2018,11,17,15,25,8.60
2018,11,17,15,26,8.50
2018,11,17,15,27,8.50
2018,11,17,15,28,8.40
2018,11,17,15,29,8.40
2018,11,17,15,30,8.30
2018,11,17,15,31,8.20
2018,11,17,15,32,8.10
2018,11,17,15,33,8.10
2018,11,17,15,34,8.00
2018,11,17,15,35,8.00
2018,11,17,15,36,7.90
2018,11,17,15,37,7.90
2018,11,17,15,38,7.90
2018,11,17,15,39,7.90
2018,11,17,15,40,7.90
2018,11,17,15,41,7.90
2018,11,17,15,42,7.90
2018,11,17,15,43,7.90
2018,11,17,15,44,7.90
2018,11,17,15,45,7.90
2018,11,17,15,46,7.90
2018,11,17,15,47,7.90
2018,11,17,15,48,7.90
2018,11,17,15,49,7.90
2018,11,17,15,50,7.80
2018,11,17,15,51,7.80
2018,11,17,15,52,7.70
2018,11,17,15,53,7.60
2018,11,17,15,54,7.50
2018,11,17,15,55,7.50
2018,11,17,15,56,7.40
2018,11,17,15,57,7.40
2018,11,17,15,58,7.30
2018,11,17,15,59,7.30
2018,11,17,16,00,7.20
2018,11,17,16,01,7.20
2018,11,17,16,02,7.10
2018,11,17,16,03,7.10
2018,11,17,16,04,7.10
2018,11,17,16,05,7.00
2018,11,17,16,06,6.90
2018,11,17,16,07,6.90
2018,11,17,16,08,6.80
2018,11,17,16,09,6.80
2018,11,17,16,10,6.70
2018,11,17,16,11,6.60
2018,11,17,16,12,6.50
2018,11,17,16,13,6.50
2018,11,17,16,14,6.40
2018,11,17,16,15,6.40
2018,11,17,16,16,6.30
2018,11,17,16,17,6.30
2018,11,17,16,18,6.20
2018,11,17,16,19,6.20
2018,11,17,16,20,6.10
2018,11,17,16,21,6.10
2018,11,17,16,22,6.00
2018,11,17,16,23,5.90
2018,11,17,16,24,5.90
2018,11,17,16,25,5.90
2018,11,17,16,26,5.80
2018,11,17,16,27,5.80
2018,11,17,16,28,5.80
2018,11,17,16,29,5.70
2018,11,17,16,30,5.70
2018,11,17,16,31,5.70
2018,11,17,16,32,5.60
2018,11,17,16,33,5.60
2018,11,17,16,34,5.50
2018,11,17,16,35,5.50
2018,11,17,16,36,5.40
2018,11,17,16,37,5.40
2018,11,17,16,38,5.40
2018,11,17,16,39,5.30
2018,11,17,16,40,5.30
2018,11,17,16,41,5.30
2018,11,17,16,42,5.20
2018,11,17,16,43,5.20
2018,11,17,16,44,5.20
2018,11,17,16,45,5.10
2018,11,17,16,46,5.10
2018,11,17,16,47,5.00
2018,11,17,16,48,5.00
2018,11,17,16,49,4.90
2018,11,17,16,50,4.90
2018,11,17,16,51,4.90
2018,11,17,16,52,4.80
2018,11,17,16,53,4.80
2018,11,17,16,54,4.80
2018,11,17,16,55,4.80
2018,11,17,16,56,4.70
2018,11,17,16,57,4.70
2018,11,17,16,58,4.70
2018,11,17,16,59,4.60
2018,11,17,17,00,4.60
2018,11,17,17,01,4.60
2018,11,17,17,02,4.60
2018,11,17,17,03,4.50
2018,11,17,17,04,4.50
2018,11,17,17,05,4.50
2018,11,17,17,06,4.50
2018,11,17,17,07,4.50
2018,11,17,17,08,4.40
2018,11,17,17,09,4.40
2018,11,17,17,10,4.40
2018,11,17,17,11,4.40
2018,11,17,17,12,4.40
2018,11,17,17,13,4.30
2018,11,17,17,14,4.30
2018,11,17,17,15,4.30
2018,11,17,17,16,4.30
2018,11,17,17,17,4.30
2018,11,17,17,18,4.30
2018,11,17,17,19,4.20
2018,11,17,17,20,4.20
2018,11,17,17,21,4.20
2018,11,17,17,22,4.20
2018,11,17,17,23,4.20
2018,11,17,17,24,4.20
2018,11,17,17,25,4.20
2018,11,17,17,26,4.20
2018,11,17,17,27,4.20
2018,11,17,17,28,4.10
2018,11,17,17,29,4.10
2018,11,17,17,30,4.10
2018,11,17,17,31,4.10
2018,11,17,17,32,4.10
2018,11,17,17,33,4.10
2018,11,17,17,34,4.10
2018,11,17,17,35,4.10
2018,11,17,17,36,4.10
2018,11,17,17,37,4.10
2018,11,17,17,38,4.00
2018,11,17,17,39,4.00
2018,11,17,17,40,4.00
2018,11,17,17,41,3.90
2018,11,17,17,42,3.90
2018,11,17,17,43,3.90
2018,11,17,17,44,3.90
2018,11,17,17,45,3.80
2018,11,17,17,46,3.80
2018,11,17,17,47,3.80
2018,11,17,17,48,3.80
2018,11,17,17,49,3.80
2018,11,17,17,50,3.70
2018,11,17,17,51,3.70
2018,11,17,17,52,3.70
2018,11,17,17,53,3.70
2018,11,17,17,54,3.70
2018,11,17,17,55,3.70
2018,11,17,17,56,3.70
2018,11,17,17,57,3.70
2018,11,17,17,58,3.70
2018,11,17,17,59,3.70
2018,11,17,18,00,3.70